YT1XN-8 Weather Reports


Display with metric or nautical units.
time (UTC)temp
F
wind
direction
speed
MPH
gust
MPH
rain 1hr
in
rain 24hr
in
rain mn
in
humidity
%
barometer
mb
20260906015241 70 9 0.0 1.0 0.00 0.00 0.00 60 1023.4
20260906015042 70 9 0.0 2.0 0.00 0.00 0.00 61 1023.4
20260906014141 70 19 1.0 4.0 0.00 0.00 0.00 59 1023.5
20260906014042 70 332 2.0 4.0 0.00 0.00 0.00 59 1023.4
20260906013053 70 344 0.0 2.0 0.00 0.00 0.00 60 1023.5
20260906012040 70 355 2.0 3.0 0.00 0.00 0.00 59 1023.4
20260906011042 70 331 1.0 3.0 0.00 0.00 0.00 58 1023.4
20260906010940 70 23 2.0 3.0 0.00 0.00 0.00 58 1023.4
20260906010041 70 349 0.0 5.0 0.00 0.00 0.00 58 1023.5
20260906005840 70 349 0.0 5.0 0.00 0.00 0.00 58 1023.4
20260906005041 70 334 2.0 4.0 0.00 0.00 0.00 57 1023.2
20260906004740 71 346 2.0 3.0 0.00 0.00 0.00 57 1023.3
20260906004041 71 18 0.0 4.0 0.00 0.00 0.00 57 1023.2
20260906003640 71 14 0.0 4.0 0.00 0.00 0.00 57 1023.2
20260906003041 71 28 2.0 5.0 0.00 0.00 0.00 56 1023.1
20260906002540 71 348 1.0 6.0 0.00 0.00 0.00 56 1023.0
20260906002041 71 31 1.0 6.0 0.00 0.00 0.00 56 1023.1
20260906001440 71 355 3.0 3.0 0.00 0.00 0.00 56 1023.1
20260906001041 71 66 1.0 9.0 0.00 0.00 0.00 56 1023.0
20260906000340 71 119 0.0 9.0 0.00 0.00 0.00 56 1023.1
20260906000041 71 18 2.0 8.0 0.00 0.00 0.00 56 1023.1
20260905235240 71 5 3.0 6.0 0.00 0.00 0.00 56 1023.1
20260905235041 71 360 4.0 6.0 0.00 0.00 0.00 56 1023.1
20260905234140 70 68 1.0 8.0 0.00 0.00 0.00 57 1023.0
20260905234041 70 9 3.0 8.0 0.00 0.00 0.00 57 1023.0
20260905233040 70 341 2.0 6.0 0.00 0.00 0.00 57 1022.9
20260905232042 70 348 2.0 2.0 0.00 0.00 0.00 58 1022.8
20260905231940 70 355 2.0 2.0 0.00 0.00 0.00 58 1022.7
20260905231042 69 288 0.0 2.0 0.00 0.00 0.00 57 1022.7
20260905230841 69 341 0.0 2.0 0.00 0.00 0.00 57 1022.6
20260905230042 69 345 1.0 3.0 0.00 0.00 0.00 57 1022.5
20260905225741 69 336 1.0 4.0 0.00 0.00 0.00 57 1022.6
20260905225042 69 306 2.0 4.0 0.00 0.00 0.00 57 1022.6
20260905224641 69 330 2.0 2.0 0.00 0.00 0.00 56 1022.6
20260905224042 70 360 0.0 1.0 0.00 0.00 0.00 57 1022.5
20260905223541 70 355 0.0 2.0 0.00 0.00 0.00 56 1022.4
20260905223042 70 360 0.0 2.0 0.00 0.00 0.00 56 1022.4
20260905222441 71 355 0.0 1.0 0.00 0.00 0.00 55 1022.3
20260905222042 71 355 0.0 1.0 0.00 0.00 0.00 55 1022.3
20260905221341 71 340 0.0 1.0 0.00 0.00 0.00 54 1022.2
20260905221042 71 340 0.0 2.0 0.00 0.00 0.00 53 1022.2
20260905220241 72 13 2.0 4.0 0.00 0.00 0.00 53 1022.1
20260905220042 72 10 1.0 4.0 0.00 0.00 0.00 53 1022.2
20260905215141 72 345 2.0 4.0 0.00 0.00 0.00 52 1021.9
20260905215042 72 360 2.0 4.0 0.00 0.00 0.00 52 1021.9
20260905214041 73 346 1.0 5.0 0.00 0.00 0.00 51 1021.9
20260905213042 73 19 1.0 6.0 0.00 0.00 0.00 51 1021.9
20260905212941 73 342 0.0 6.0 0.00 0.00 0.00 51 1021.9
20260905212042 74 5 4.0 6.0 0.00 0.00 0.00 50 1021.7
20260905211841 74 355 3.0 6.0 0.00 0.00 0.00 49 1021.7
20260905211042 74 355 4.0 6.0 0.00 0.00 0.00 49 1021.7
20260905210741 74 13 2.0 6.0 0.00 0.00 0.00 48 1021.6
20260905210044 75 360 3.0 11.0 0.00 0.00 0.00 48 1021.5
20260905205641 75 63 6.0 11.0 0.00 0.00 0.00 48 1021.5
20260905205042 75 15 3.0 11.0 0.00 0.00 0.00 47 1021.4
20260905204541 75 26 2.0 11.0 0.00 0.00 0.00 48 1021.4
20260905204042 75 5 6.0 10.0 0.00 0.00 0.00 47 1021.3
20260905203440 75 5 4.0 10.0 0.00 0.00 0.00 47 1021.2
20260905203042 75 5 8.0 10.0 0.00 0.00 0.00 48 1021.3
20260905202340 76 355 1.0 9.0 0.00 0.00 0.00 48 1021.1
20260905202042 76 13 5.0 10.0 0.00 0.00 0.00 48 1021.0
20260905201240 76 19 4.0 9.0 0.00 0.00 0.00 48 1021.0
20260905201041 76 18 2.0 9.0 0.00 0.00 0.00 48 1021.0
20260905200140 76 10 2.0 10.0 0.00 0.00 0.00 47 1020.8
20260905200042 76 30 4.0 10.0 0.00 0.00 0.00 48 1020.8
20260905195040 77 38 2.0 12.0 0.00 0.00 0.00 47 1020.5
20260905194042 77 355 4.0 11.0 0.00 0.00 0.00 47 1020.4
20260905193940 77 13 5.0 11.0 0.00 0.00 0.00 47 1020.4
20260905193042 77 114 2.0 14.0 0.00 0.00 0.00 48 1020.3
20260905192840 77 40 3.0 14.0 0.00 0.00 0.00 48 1020.3
20260905192041 77 42 5.0 13.0 0.00 0.00 0.00 48 1020.1
20260905191740 78 11 3.0 13.0 0.00 0.00 0.00 48 1020.0
20260905191041 78 13 5.0 13.0 0.00 0.00 0.00 48 1019.9
20260905190640 78 80 5.0 13.0 0.00 0.00 0.00 49 1019.8
20260905190042 78 355 6.0 14.0 0.00 0.00 0.00 49 1019.7
20260905185540 79 360 2.0 12.0 0.00 0.00 0.00 49 1019.5
20260905185041 79 34 3.0 13.0 0.00 0.00 0.00 48 1019.4
20260905184440 79 31 6.0 13.0 0.00 0.00 0.00 49 1019.4
20260905184042 79 5 8.0 13.0 0.00 0.00 0.00 48 1019.3
20260905183340 79 13 2.0 10.0 0.00 0.00 0.00 48 1019.2
20260905183041 79 50 4.0 10.0 0.00 0.00 0.00 48 1019.1
20260905182240 80 340 2.0 9.0 0.00 0.00 0.00 48 1018.9
20260905182041 80 360 1.0 12.0 0.00 0.00 0.00 48 1018.9
20260905181140 80 57 2.0 11.0 0.00 0.00 0.00 47 1018.6
20260905181041 80 28 3.0 12.0 0.00 0.00 0.00 47 1018.7
20260905180040 81 32 2.0 12.0 0.00 0.00 0.00 47 1018.5
20260905175042 81 83 3.0 17.0 0.00 0.00 0.00 46 1018.4
20260905174940 81 51 3.0 18.0 0.00 0.00 0.00 46 1018.3
20260905174041 82 81 3.0 13.0 0.00 0.00 0.00 46 1018.1
20260905173840 82 92 3.0 13.0 0.00 0.00 0.00 45 1018.2
20260905173043 82 59 2.0 10.0 0.00 0.00 0.00 45 1017.9
20260905172740 82 52 2.0 11.0 0.00 0.00 0.00 45 1018.0
20260905172042 83 76 9.0 12.0 0.00 0.00 0.00 46 1017.7
20260905171640 83 140 3.0 12.0 0.00 0.00 0.00 45 1017.7
20260905171042 83 59 3.0 13.0 0.00 0.00 0.00 45 1017.6
20260905170540 83 46 4.0 16.0 0.00 0.00 0.00 45 1017.4
20260905170042 84 82 5.0 16.0 0.00 0.00 0.00 45 1017.2
20260905165440 84 68 4.0 14.0 0.00 0.00 0.00 45 1017.2
20260905165041 84 59 4.0 20.0 0.00 0.00 0.00 45 1017.1
20260905164340 85 42 20.0 20.0 0.00 0.00 0.00 47 1017.0
20260905164042 85 80 8.0 14.0 0.00 0.00 0.00 47 1016.8
20260905163240 85 355 5.0 16.0 0.00 0.00 0.00 47 1016.9
20260905163042 85 79 5.0 16.0 0.00 0.00 0.00 47 1016.8
20260905162140 86 58 9.0 14.0 0.00 0.00 0.00 47 1016.8
20260905162042 86 63 4.0 16.0 0.00 0.00 0.00 47 1016.9
20260905161040 86 146 6.0 14.0 0.00 0.00 0.00 47 1016.7
20260905160042 86 123 3.0 15.0 0.00 0.00 0.00 47 1016.6
20260905155940 86 53 7.0 15.0 0.00 0.00 0.00 47 1016.5
20260905155042 87 259 10.0 15.0 0.00 0.00 0.00 46 1016.3
20260905154840 88 59 4.0 15.0 0.00 0.00 0.00 47 1016.2
20260905154041 88 40 4.0 21.0 0.00 0.00 0.00 47 1016.1
20260905153740 89 329 2.0 21.0 0.00 0.00 0.00 47 1016.1
20260905153041 90 74 4.0 20.0 0.00 0.00 0.00 47 1015.9
20260905152640 90 34 6.0 20.0 0.00 0.00 0.00 47 1015.8
20260905152041 90 39 4.0 21.0 0.00 0.00 0.00 46 1015.7
20260905151540 91 11 3.0 16.0 0.00 0.00 0.00 45 1015.7
20260905151041 92 30 6.0 16.0 0.00 0.00 0.00 45 1015.7
20260905150440 92 29 9.0 21.0 0.00 0.00 0.00 44 1015.6
20260905150041 93 29 10.0 21.0 0.00 0.00 0.00 43 1015.6
20260905145340 94 355 8.0 16.0 0.00 0.00 0.00 40 1015.6
20260905145041 94 19 2.0 16.0 0.00 0.00 0.00 40 1015.6
20260905144240 94 46 2.0 13.0 0.00 0.00 0.00 40 1015.6
20260905144041 95 329 6.0 13.0 0.00 0.00 0.00 40 1015.6
20260905143318 95 342 6.0 16.0 0.00 0.00 0.00 39 1015.6
20260905143041 95 318 2.0 14.0 0.00 0.00 0.00 39 1015.5
20260905142040 95 15 2.0 10.0 0.00 0.00 0.00 39 1015.6
20260905141041 95 9 11.0 13.0 0.00 0.00 0.00 38 1015.6
20260905140940 96 355 3.0 12.0 0.00 0.00 0.00 38 1015.6
20260905140041 96 342 4.0 12.0 0.00 0.00 0.00 39 1015.7
20260905135840 96 11 11.0 11.0 0.00 0.00 0.00 39 1015.7
20260905135042 96 135 2.0 11.0 0.00 0.00 0.00 39 1015.7
20260905134741 96 207 0.0 11.0 0.00 0.00 0.00 39 1015.7
20260905134042 97 5 1.0 11.0 0.00 0.00 0.00 39 1015.7
20260905133641 97 340 6.0 12.0 0.00 0.00 0.00 40 1015.7
20260905133042 96 232 4.0 12.0 0.00 0.00 0.00 40 1015.7
20260905132541 96 321 8.0 13.0 0.00 0.00 0.00 40 1015.8
20260905132042 96 22 4.0 13.0 0.00 0.00 0.00 40 1015.8
20260905131441 96 279 2.0 8.0 0.00 0.00 0.00 39 1015.7
20260905131042 96 290 5.0 8.0 0.00 0.00 0.00 39 1015.8
20260905130341 96 150 1.0 10.0 0.00 0.00 0.00 39 1016.0
20260905130042 96 271 4.0 10.0 0.00 0.00 0.00 41 1016.0
20260905125241 96 360 6.0 11.0 0.00 0.00 0.00 39 1016.1
20260905125043 96 340 4.0 11.0 0.00 0.00 0.00 39 1016.1
20260905124141 96 338 2.0 12.0 0.00 0.00 0.00 40 1016.2
20260905124042 96 259 2.0 12.0 0.00 0.00 0.00 40 1016.2
20260905123041 96 273 2.0 13.0 0.00 0.00 0.00 40 1016.2
20260905122042 97 263 7.0 14.0 0.00 0.00 0.00 39 1016.2
20260905121941 97 273 3.0 14.0 0.00 0.00 0.00 38 1016.3
20260905121043 97 278 2.0 10.0 0.00 0.00 0.00 39 1016.3
20260905120841 96 5 2.0 10.0 0.00 0.00 0.00 40 1016.4
20260905120042 96 339 1.0 8.0 0.00 0.00 0.00 39 1016.5
20260905115741 96 259 3.0 8.0 0.00 0.00 0.00 39 1016.5
20260905115042 96 273 4.0 10.0 0.00 0.00 0.00 40 1016.6
20260905114641 96 238 5.0 12.0 0.00 0.00 0.00 38 1016.5
20260905114041 96 305 8.0 12.0 0.00 0.00 0.00 38 1016.6
20260905113541 96 263 3.0 12.0 0.00 0.00 0.00 38 1016.6
20260905113042 96 263 7.0 8.0 0.00 0.00 0.00 39 1016.7
20260905112440 96 338 1.0 10.0 0.00 0.00 0.00 37 1016.8
20260905112042 96 259 2.0 10.0 0.00 0.00 0.00 39 1016.8
20260905111341 96 302 1.0 8.0 0.00 0.00 0.00 39 1016.9
20260905111042 96 251 2.0 8.0 0.00 0.00 0.00 38 1016.9
20260905110320 96 317 6.0 8.0 0.00 0.00 0.00 39 1016.9
20260905110041 95 273 2.0 11.0 0.00 0.00 0.00 39 1016.9
20260905105140 95 277 2.0 10.0 0.00 0.00 0.00 37 1016.9
20260905105042 95 270 9.0 10.0 0.00 0.00 0.00 38 1016.9
20260905104040 95 259 2.0 7.0 0.00 0.00 0.00 37 1016.9
20260905103043 94 44 1.0 9.0 0.00 0.00 0.00 37 1016.9
20260905102940 94 24 2.0 11.0 0.00 0.00 0.00 37 1016.8
20260905102042 94 269 3.0 10.0 0.00 0.00 0.00 36 1017.0
20260905101840 94 247 8.0 11.0 0.00 0.00 0.00 37 1017.1
20260905101041 94 31 8.0 8.0 0.00 0.00 0.00 38 1017.1
20260905100740 94 273 4.0 8.0 0.00 0.00 0.00 40 1017.1
20260905100043 94 320 2.0 8.0 0.00 0.00 0.00 38 1017.2
20260905095640 94 312 1.0 8.0 0.00 0.00 0.00 39 1017.1
20260905095041 93 254 2.0 7.0 0.00 0.00 0.00 39 1017.2
20260905094540 93 280 2.0 6.0 0.00 0.00 0.00 40 1017.1
20260905094042 93 252 4.0 5.0 0.00 0.00 0.00 40 1017.1
20260905093440 92 341 2.0 7.0 0.00 0.00 0.00 40 1017.0
20260905093042 92 347 0.0 7.0 0.00 0.00 0.00 40 1017.0
20260905092340 92 252 2.0 9.0 0.00 0.00 0.00 41 1017.0
20260905092041 92 259 1.0 9.0 0.00 0.00 0.00 40 1017.1
20260905091240 92 281 2.0 9.0 0.00 0.00 0.00 41 1017.1
20260905091041 92 287 2.0 9.0 0.00 0.00 0.00 41 1017.2
20260905090140 91 337 2.0 9.0 0.00 0.00 0.00 42 1017.1
20260905090041 91 5 4.0 9.0 0.00 0.00 0.00 42 1017.0
20260905085040 89 227 1.0 10.0 0.00 0.00 0.00 46 1017.0
20260905084042 89 282 4.0 7.0 0.00 0.00 0.00 44 1017.1
20260905083940 89 284 3.0 7.0 0.00 0.00 0.00 44 1017.1
20260905083041 88 5 0.0 6.0 0.00 0.00 0.00 44 1016.9
20260905082840 88 320 0.0 6.0 0.00 0.00 0.00 46 1017.0
20260905082041 87 283 4.0 8.0 0.00 0.00 0.00 45 1017.0
20260905081740 87 259 6.0 8.0 0.00 0.00 0.00 45 1017.1
20260905081041 86 244 5.0 7.0 0.00 0.00 0.00 48 1017.0
20260905080640 86 249 1.0 4.0 0.00 0.00 0.00 49 1017.0
20260905080042 85 249 1.0 6.0 0.00 0.00 0.00 50 1017.0
20260905075540 84 273 6.0 6.0 0.00 0.00 0.00 50 1017.0
20260905075041 84 250 3.0 5.0 0.00 0.00 0.00 51 1017.0
20260905074440 83 211 2.0 5.0 0.00 0.00 0.00 52 1016.9
20260905074041 82 234 3.0 5.0 0.00 0.00 0.00 52 1016.9
20260905073340 82 240 0.0 3.0 0.00 0.00 0.00 54 1016.8
20260905073042 81 244 1.0 3.0 0.00 0.00 0.00 55 1016.8
20260905072240 80 216 1.0 4.0 0.00 0.00 0.00 55 1016.9
20260905072041 80 241 1.0 4.0 0.00 0.00 0.00 55 1016.9
20260905071140 79 235 0.0 5.0 0.00 0.00 0.00 57 1016.8
20260905071041 79 237 0.0 5.0 0.00 0.00 0.00 57 1016.8
20260905070040 77 248 3.0 4.0 0.00 0.00 0.00 57 1016.7
20260905065043 76 191 1.0 4.0 0.00 0.00 0.00 58 1016.7
20260905064940 76 205 0.0 4.0 0.00 0.00 0.00 59 1016.6
20260905064041 75 224 2.0 4.0 0.00 0.00 0.00 60 1016.6
20260905063840 74 242 2.0 4.0 0.00 0.00 0.00 61 1016.6
20260905063041 74 232 0.0 3.0 0.00 0.00 0.00 62 1016.6
20260905062740 74 239 1.0 2.0 0.00 0.00 0.00 63 1016.6
20260905062041 73 146 0.0 3.0 0.00 0.00 0.00 62 1016.5
20260905061640 73 140 1.0 4.0 0.00 0.00 0.00 62 1016.4
20260905061043 73 196 0.0 4.0 0.00 0.00 0.00 61 1016.4
20260905060540 73 142 0.0 5.0 0.00 0.00 0.00 62 1016.4
20260905060043 73 155 2.0 5.0 0.00 0.00 0.00 62 1016.4
20260905055440 72 133 1.0 6.0 0.00 0.00 0.00 62 1016.4
20260905055041 72 126 1.0 6.0 0.00 0.00 0.00 61 1016.4
20260905054340 72 150 2.0 6.0 0.00 0.00 0.00 62 1016.4
20260905054042 72 124 2.0 6.0 0.00 0.00 0.00 63 1016.3
20260905053240 72 151 2.0 7.0 0.00 0.00 0.00 62 1016.4
20260905053041 71 155 4.0 7.0 0.00 0.00 0.00 62 1016.4
20260905052140 71 155 3.0 6.0 0.00 0.00 0.00 62 1016.4
20260905052041 71 125 5.0 6.0 0.00 0.00 0.00 63 1016.4
20260905051040 71 154 3.0 7.0 0.00 0.00 0.00 63 1016.4
20260905050042 71 177 3.0 6.0 0.00 0.00 0.00 63 1016.6
20260905045940 71 151 2.0 6.0 0.00 0.00 0.00 62 1016.5
20260905045041 70 183 3.0 7.0 0.00 0.00 0.00 63 1016.5
20260905044840 70 170 5.0 7.0 0.00 0.00 0.00 62 1016.5
20260905044042 70 150 1.0 6.0 0.00 0.00 0.00 62 1016.5
20260905043741 70 148 2.0 6.0 0.00 0.00 0.00 63 1016.4
20260905043042 70 160 2.0 3.0 0.00 0.00 0.00 63 1016.5
20260905042641 70 132 0.0 2.0 0.00 0.00 0.00 63 1016.5
20260905042042 70 154 0.0 3.0 0.00 0.00 0.00 63 1016.5
20260905041541 70 150 0.0 5.0 0.00 0.00 0.00 62 1016.4
20260905041042 70 162 4.0 5.0 0.00 0.00 0.00 62 1016.5
20260905040441 70 128 2.0 6.0 0.00 0.00 0.00 62 1016.5
20260905040042 70 144 3.0 7.0 0.00 0.00 0.00 62 1016.5
20260905035341 70 162 2.0 7.0 0.00 0.00 0.00 62 1016.5
20260905035042 70 142 4.0 7.0 0.00 0.00 0.00 62 1016.5
20260905034241 70 142 3.0 7.0 0.00 0.00 0.00 62 1016.5
20260905034042 70 107 6.0 6.0 0.00 0.00 0.00 62 1016.6
20260905033141 70 138 4.0 6.0 0.00 0.00 0.00 62 1016.5
20260905033042 70 145 4.0 5.0 0.00 0.00 0.00 62 1016.6
20260905032041 70 141 3.0 7.0 0.00 0.00 0.00 62 1016.7
20260905031046 71 182 3.0 6.0 0.00 0.00 0.00 62 1016.7
20260905030941 71 157 2.0 6.0 0.00 0.00 0.00 62 1016.7
20260905030042 71 151 3.0 7.0 0.00 0.00 0.00 62 1016.7
20260905025841 71 132 5.0 7.0 0.00 0.00 0.00 62 1016.7
20260905025041 71 135 4.0 8.0 0.00 0.00 0.00 62 1016.7
20260905024741 71 157 5.0 8.0 0.00 0.00 0.00 62 1016.7
20260905024042 71 177 4.0 7.0 0.00 0.00 0.00 62 1016.7
20260905023640 71 131 5.0 5.0 0.00 0.00 0.00 62 1016.7
20260905023042 71 109 3.0 8.0 0.00 0.00 0.00 61 1016.7
20260905022540 71 139 3.0 8.0 0.00 0.00 0.00 61 1016.8
20260905022042 71 146 3.0 7.0 0.00 0.00 0.00 61 1016.8
20260905021440 71 162 2.0 7.0 0.00 0.00 0.00 61 1016.7
20260905021041 71 157 3.0 6.0 0.00 0.00 0.00 61 1016.7
20260905020340 71 154 4.0 7.0 0.00 0.00 0.00 61 1016.6
20260905020041 71 128 3.0 7.0 0.00 0.00 0.00 61 1016.6